Weather in Vladimir

Russia / Vladimir Oblast     56°07′44″N   40°24′23″E
temp.,
°C
wind,
m/s
gust,
m/s
humid.,
%
clouds,
%
prec.,
mm/h
press.,
hPa
HPBL,
m
8 march, mon
mon800:00−11sw338945 0.0 99338
03:00−9w489272 0.9 995211
06:00−12wsw379459 0.0 995134
09:00−9wsw349480 0.4 995249
12:00−7nw3489100 0.4 998549
15:00−6nw478596 0.4 1000721
18:00−9nw499180 0.1 1003291
21:00−11nw499456 0.1 1007238
9 march, tue
tue900:00−14nw359784 0.0 1008100
03:00−16nnw349880 0.1 101059
06:00−17nnw369781 0.1 1012158
09:00−18nnw479687 0.1 1014239
12:00−16nnw469277 0.0 1015347
15:00−14nw479085 0.0 1016470
18:00−17nw489593 0.0 1017196
21:00−20nnw379895 0.1 1020131
10 march, wed
wed1000:00−22nnw369996 0.0 1022114
03:00−25nnw359988 0.1 1023108
06:00−27nnw379861 0.0 1025117
09:00−26n369558 0.0 1026220
12:00−21nnw359027 0.0 1027354
15:00−18nw468736 0.0 1027458
18:00−21nw349331 0.0 102754
21:00−22nw239016 0.0 102920
11 march, thu
thu1100:00−23wnw23950 0.0 102922
03:00−24wnw33960 0.0 103030
06:00−24wnw23980 0.0 103127
09:00−21wnw24960 0.0 1031130
12:00−16wnw34907 0.0 1030250
15:00−12w248817 0.0 1030317
18:00−16wsw11910 0.0 103020
21:00−17sw23940 0.0 103120
12 march, fri
fri1200:00−19sw33960 0.0 103133
03:00−21ssw34960 0.0 103055
06:00−23s37880 0.0 1029111
09:00−18s510830 0.0 1028301
12:00−12s511770 0.0 1025458
15:00−9sse6128117 0.0 1022590
18:00−11sse61480100 0.0 1020576
21:00−11sse71580100 0.0 1018614